|
Cosmos 1892 Rocket - Orbit
|
Hall+in+Tirol;
09:09:49
| Home | Info | Passes |
|
View from above orbital plane
|
View from above satellite
|
Ground track
|
The orbit data is extracted from the following two-line orbital elements,
1 18422U 87088B 13145.17068755 .00000422 00000-0 50158-4 0 9396
2 18422 082.5112 126.7309 0018287 284.9485 139.3742 14.82045321381935
| Epoch (UTC): | 25 May 2013 04:05:47 |
| Eccentricity: | 0.0018287 |
| inclination: | 82.5112° |
| perigee height: | 610 km |
| apogee height: | 635 km |
| right ascension of ascending node: | 126.7309° |
| argument of perigee: | 284.9485° |
| revolutions per day: | 14.82045321 |
| mean anomaly at epoch: | 139.3742° |
| orbit number at epoch: | 38193 |
The dashed part of the orbit path shows where the satellite is in the earth's shadow,
|
|